Find Radiation Belt Storm Probe B

NORAD ID: 38753 Int'l Des: 2012-046 Owner: GSFC/APL Country: US operational
MEOELLIPTICALHEO_ELLIPTICAL

实时位置

正在加载3D地球...

关于 Radiation Belt Storm Probe B

正在加载描述...

即将过境

Passes for default location (London). Set your location on the main map for personalized predictions.

高度历史

Loading altitude history...

两行轨道根数

1 38753U 12046B 26121.49241265 .00009619 00000-0 97349-3 0 9994
2 38753 10.0356 168.6210 6402302 92.1024 337.0410 3.48451725142916
Epoch: May 1, 2026 • Age: 16 hours

当前状态

高度 14926.6 km
速度 3.97 km/s
星下点 -8.00°S, 130.48°E
发射日期 Aug 30, 2012
运行时间 13.6 years
类型 other

技术详情

分类 Payload
质量 667.00 kg
干质量 611.00 kg
总质量 667.00 kg
长度 1.30 m
直径 1.80 m
跨度 101.70 m
形状 Oct+4 pan+8 booms
制造商 APL
平台类型 RBSP
阶段状态 Renamed
所有者/国家 GSFC/APL/US

Most Searched